This demonstration page uses our WeatherBlox Daily Observations layout. Learn more.

Left ArrowRight Arrow

41.86663, -103.66717

Hourly Observations for March 25, 2020

Temp ( °F °C ) Dew Point ( °F °C ) Humidity (%) Winds ( mph kmh ) Pressure ( in mb ) Visibility ( mi km ) Precip ( " mm )
12:53 am 00:53 Cloudy 44 6.7 34 1.1 68 68 VRB 3 6 29.72 1006 10 16 N/A
1:53 am 01:53 Partly Cloudy 37 2.8 30 -1.1 76 76 ESE 6 9 29.70 1006 10 16 N/A
2:53 am 02:53 Mostly Cloudy 37 2.8 30 -1.1 76 76 E 6 9 29.67 1005 10 16 N/A
3:53 am 03:53 Mostly Clear 39 3.9 31 -0.6 73 73 N 3 6 29.65 1004 10 16 N/A
4:53 am 04:53 Mostly Cloudy 35 1.7 30 -1.1 82 82 N 5 7 29.66 1004 10 16 N/A
5:53 am 05:53 Clear 34 1.1 28 -2.2 79 79 undefined N/A 29.67 1005 10 16 N/A
6:53 am 06:53 Mostly Sunny 33 0.6 30 -1.1 89 89 NW 6 9 29.71 1006 10 16 N/A
7:53 am 07:53 Mostly Sunny 34 1.1 30 -1.1 85 85 W 5 7 29.73 1007 10 16 N/A
8:53 am 08:53 Sunny 42 5.6 33 0.6 71 71 WNW 16 26 29.75 1007 10 16 N/A
9:53 am 09:53 Sunny 48 8.9 36 2.2 63 63 WNW 9 15 29.76 1008 10 16 N/A
10:53 am 10:53 Sunny 53 11.7 38 3.3 57 57 W 10 17 29.73 1007 10 16 N/A
11:53 am 11:53 Sunny 56 13.3 35 1.7 46 46 WNW 13 20 29.73 1007 10 16 N/A
12:53 pm 12:53 Sunny 58 14.4 31 -0.6 36 36 W 8 13 29.71 1006 10 16 N/A
1:53 pm 13:53 Sunny 60 15.6 28 -2.2 30 30 WNW 15 24 29.71 1006 10 16 N/A
2:53 pm 14:53 Sunny 61 16.1 25 -3.9 25 25 W 15 24 29.70 1006 10 16 N/A
3:53 pm 15:53 Sunny 60 15.6 26 -3.3 27 27 WNW 14 22 29.68 1005 10 16 N/A
4:53 pm 16:53 Sunny 61 16.1 25 -3.9 25 25 NW 18 30 29.69 1005 10 16 N/A
5:53 pm 17:53 Sunny 59 15 25 -3.9 27 27 NW 21 33 29.67 1005 10 16 N/A
6:53 pm 18:53 Sunny 55 12.8 25 -3.9 31 31 WNW 12 19 29.72 1006 10 16 N/A
7:53 pm 19:53 Cloudy 50 10 26 -3.3 39 39 WNW 7 11 29.75 1008 10 16 N/A
8:53 pm 20:53 Clear 44 6.7 29 -1.7 55 55 NNE 9 15 29.75 1008 10 16 N/A
9:53 pm 21:53 Partly Cloudy 46 7.8 33 0.6 61 61 E 8 13 29.74 1007 10 16 N/A
10:53 pm 22:53 Clear 41 5 32 undefined 70 70 ESE 6 9 29.74 1007 10 16 N/A
11:53 pm 23:53 Clear 38 3.3 30 -1.1 73 73 ESE 6 9 29.74 1007 10 16 N/A

Powered by AerisWeather